Weather History for Lawrence, KS

Change the Weather History Date:

Monday, January 21, 2013

  Actual Average Record
Temperature  
Mean Temperature 18 °F 29 °F  
Max Temperature 24 °F 40 °F 64 °F (1997)
Min Temperature 11 °F 19 °F 3 °F (2011)
Degree Days  
Heating Degree Days 47 36  
Month to date heating degree days 700 756  
Since 1 July heating degree days 2640 2799  
Cooling Degree Days 0 0  
Month to date cooling degree days 0 0  
Year to date cooling degree days 0 0  
Moisture  
Dew Point 6 °F    
Average Humidity 61    
Maximum Humidity 83    
Minimum Humidity 39    
Precipitation  
Precipitation 0.00 in 0.02 in 0.02 in (2007)
Month to date precipitation 0.53 0.61  
Year to date precipitation 0.53 0.61  
Sea Level Pressure  
Sea Level Pressure 30.45 in    
Wind  
Wind Speed 6 mph (NNW)    
Max Wind Speed 18 mph    
Max Gust Speed 25 mph    
Visibility 10 miles    
Events      
T = Trace of Precipitation, MM = Missing Value Source: NWS Daily Summary

Daily Weather History Graph

Daily Weather History Graph

Search for Another Location

Airport:

Trip Planner

Search our weather history database for the weather conditions in past years. The results will help you decide how hot, cold, wet, or windy it might be!

Date:

Astronomy

Jan. 21, 2013 Rise Set
Actual Time 7:35 AM CST 5:29 PM CST
Civil Twilight 7:06 AM CST 5:58 PM CST
Nautical Twilight 6:33 AM CST 6:31 PM CST
Astronomical Twilight 6:02 AM CST 7:02 PM CST
Moon 1:10 PM CST (1/21) 3:04 AM CST (1/21)
Length of Visible Light 10h 52m
Length of Day
9h 54m
Waxing Gibbous, 75% of the Moon is Illuminated
Jan 21
Waxing Gibbous
Jan 26
Full
Feb 3
Last Quarter
Feb 10
New
Feb 17
First Quarter

Hourly Weather History & Observations

Time (CST) Temp. Windchill Dew Point Humidity Pressure Visibility Wind Dir Wind Speed Gust Speed Precip Events Conditions
12:52 AM 18.0 °F 8.7 °F 9.0 °F 68% 30.45 in 10.0 mi North 6.9 mph - N/A   Clear
1:52 AM 17.1 °F 11.7 °F 8.1 °F 68% 30.46 in 10.0 mi NW 3.5 mph - N/A   Clear
2:52 AM 12.9 °F 3.8 °F 7.0 °F 77% 30.48 in 10.0 mi NW 5.8 mph - N/A   Clear
3:52 AM 12.9 °F - 7.0 °F 77% 30.45 in 10.0 mi Calm Calm - N/A   Clear
4:52 AM 10.9 °F - 7.0 °F 84% 30.44 in 10.0 mi Calm Calm - N/A   Partly Cloudy
5:52 AM 16.0 °F - 10.0 °F 77% 30.43 in 10.0 mi Calm Calm - N/A   Overcast
6:52 AM 17.1 °F 10.0 °F 10.9 °F 77% 30.45 in 10.0 mi NW 4.6 mph - N/A   Overcast
7:52 AM 17.1 °F 11.7 °F 10.0 °F 74% 30.46 in 10.0 mi North 3.5 mph - N/A   Overcast
8:52 AM 19.0 °F 12.3 °F 10.9 °F 71% 30.48 in 10.0 mi North 4.6 mph - N/A   Overcast
9:52 AM 19.9 °F 7.9 °F 10.0 °F 65% 30.49 in 10.0 mi North 11.5 mph - N/A   Overcast
10:52 AM 21.0 °F 7.1 °F 3.0 °F 46% 30.49 in 10.0 mi NNW 16.1 mph - N/A   Overcast
11:52 AM 21.9 °F 12.5 °F 5.0 °F 48% 30.48 in 10.0 mi NNW 8.1 mph - N/A   Overcast
12:52 PM 21.9 °F 9.8 °F -0.0 °F 38% 30.47 in 10.0 mi NNW 12.7 mph - N/A   Overcast
1:52 PM 21.9 °F 9.8 °F 1.0 °F 40% 30.45 in 10.0 mi North 12.7 mph - N/A   Overcast
2:52 PM 21.9 °F 9.2 °F 1.9 °F 42% 30.45 in 10.0 mi NW 13.8 mph 19.6 mph N/A   Overcast
3:52 PM 21.0 °F 8.6 °F 3.9 °F 48% 30.44 in 10.0 mi North 12.7 mph - N/A   Overcast
4:52 PM 19.9 °F 7.9 °F 3.9 °F 50% 30.45 in 10.0 mi NNW 11.5 mph - N/A   Overcast
5:52 PM 19.0 °F 8.2 °F 3.9 °F 52% 30.43 in 10.0 mi NNW 9.2 mph - N/A   Overcast
7:52 PM 15.1 °F - 5.0 °F 64% 30.43 in 10.0 mi Calm Calm - N/A   Partly Cloudy
8:52 PM 16.0 °F - 7.0 °F 68% 30.43 in 10.0 mi Calm Calm - N/A   Overcast
10:52 PM 18.0 °F 11.1 °F 5.0 °F 57% 30.44 in 10.0 mi North 4.6 mph - N/A   Overcast
11:52 PM 18.0 °F 9.8 °F 5.0 °F 57% 30.41 in 10.0 mi NE 5.8 mph - N/A   Overcast